SCP
-0 -0 -0 -0 0 -0 0 0 0 0 0 0 0 0 0 0 0 0 0 0 -0 -0 -0 -0 -0 -2 -3 -5 -2 -0 0 1
-0 -0 -0 0 0 0 0 0 0 0 0 0 0 0 0 0 0 0 0 0 -0 -0 -0 -0 -1 -1 -2 -6 -5 -3 -1 -0
0 0 0 0 0 0 0 0 0 0 0 -0 0 0 0 0 0 0 0 0 0 0 0 -0 0 0 -1 -4 -4 -3 -2 -1
-0 0 0 0 0 0 0 0 0 0 -0 -0 0 0 0 -0 0 0 0 0 0 0 0 0 1 0 -2 -3 -4 -3 -2 -2
0 -0 -0 0 0 0 0 0 0 0 0 -0 -0 -0 0 0 0 0 0 0 0 0 1 0 0 0 -1 -2 -3 -3 -3 -2
0 0 0 0 0 0 0 0 0 -0 0 0 0 0 0 0 0 0 0 0 0 1 0 0 0 0 -0 -1 -1 -2 -3 -2
0 0 0 0 0 0 0 0 0 0 0 0 0 0 0 0 0 0 0 0 1 1 1 1 0 0 0 0 -0 -0 -1 -2
0 0 0 0 0 0 0 0 0 0 0 0 0 0 0 0 0 0 0 0 1 1 0 0 1 1 2 1 0 1 0 -1
0 0 0 0 0 0 0 0 0 0 0 0 0 -0 0 0 0 0 0 0 0 1 1 1 1 1 1 2 1 1 1 1
0 0 0 0 0 0 0 0 0 0 0 0 0 0 0 0 0 0 0 0 1 1 2 2 2 2 2 3 2 1 1 1
0 0 0 0 0 0 0 0 0 0 0 0 0 0 0 0 0 0 0 -0 0 1 1 2 2 2 2 3 3 2 1 2
0 0 0 0 0 0 0 0 1 1 1 0 0 0 0 1 1 1 0 0 0 0 0 3 2 3 3 3 3 3 2 2
0 0 0 0 0 0 0 0 1 1 2 1 1 1 1 1 1 0 1 0 0 0 1 1 2 6 5 3 2 3 4 5
0 0 0 1 0 0 0 3 2 1 1 1 1 1 1 0 0 0 2 2 0 0 2 3 4 9 6 5 4 6 12 7
0 1 1 2 2 3 4 5 8 5 4 3 3 2 3 5 4 3 3 5 8 11 15 13 13 14 13 17 14 13 12 12
0 1 0 1 1 3 3 3 2 2 2 2 1 1 1 3 6 10 10 10 12 17 24 31 31 22 21 20 18 14 17 15
0 0 0 1 1 1 1 0 0 0 0 0 0 0 0 1 4 5 7 12 20 20 17 16 15 20 21 24 24 18 15 11
0 0 0 0 0 0 0 0 0 0 0 0 0 0 0 0 0 2 6 5 6 16 16 16 14 15 15 18 17 10 7 5
0 0 0 0 0 0 0 0 0 0 0 0 0 0 0 0 0 0 0 3 5 3 6 8 9 9 9 7 5 4 3 2
Wind_Speed_500mb
48 40 36 22 42 28 10 16 12 16 17 22 30 38 32 49 63 76 77 73 103 111 111 116 113 107 101 98 94 85 76 65
42 44 35 39 12 22 29 30 38 31 20 24 16 35 27 23 39 64 67 90 97 108 113 115 117 110 102 98 96 89 80 72
30 38 45 23 35 23 14 26 24 20 32 16 19 32 32 36 65 75 102 91 96 110 115 115 112 110 108 102 96 93 86 78
50 35 47 48 25 22 18 12 9 17 30 18 27 15 51 62 71 74 52 102 99 107 107 109 108 110 113 107 102 95 87 82
34 33 38 51 38 28 30 10 23 9 29 35 34 6 12 7 28 58 52 66 94 100 102 111 108 108 112 111 105 97 89 86
37 38 11 18 45 40 34 27 33 44 27 37 9 14 28 51 60 35 64 47 91 96 109 113 111 107 108 112 105 98 94 90
53 37 28 49 28 50 44 42 31 25 32 29 21 18 17 46 51 56 23 33 74 95 105 107 108 108 106 106 106 96 93 92
34 53 50 51 37 40 50 44 38 35 37 12 13 52 37 42 52 59 36 47 69 83 100 106 106 109 110 107 107 99 93 92
16 15 11 39 55 36 22 34 36 33 36 15 19 11 16 21 25 22 37 42 61 69 79 96 103 100 110 111 110 105 95 92
12 12 17 13 20 29 30 16 25 21 18 21 22 40 29 24 13 13 32 44 68 66 58 65 91 102 98 110 113 110 103 97
10 21 4 14 14 10 13 26 3 9 10 11 30 22 17 22 38 51 51 63 36 52 60 61 69 76 101 108 115 113 111 105
5 13 30 6 9 12 9 6 14 20 18 17 18 5 9 41 30 12 28 64 60 50 56 75 70 77 79 98 112 121 116 112
9 11 9 7 25 9 15 12 15 30 21 19 7 1 25 38 42 36 29 37 66 92 71 52 53 76 84 90 104 113 117 107
8 5 7 7 11 13 14 25 24 25 19 11 12 21 28 34 39 45 36 20 43 66 81 76 62 72 91 91 92 97 98 86
18 5 2 36 22 23 42 47 35 37 24 16 38 39 39 50 33 13 4 7 24 42 60 65 69 77 83 83 80 72 78 79
15 16 19 11 10 55 51 52 40 37 37 37 45 37 42 41 38 29 21 25 31 43 47 42 61 70 71 72 73 65 70 72
13 16 50 39 41 53 50 39 38 42 45 51 49 48 41 36 34 30 29 32 39 47 50 48 39 44 56 63 69 71 73 69
6 26 16 36 41 41 51 45 46 46 49 49 48 51 50 48 37 28 17 15 23 49 57 57 55 57 62 66 66 70 65 52
9 32 58 44 79 57 59 47 43 50 53 43 37 42 46 44 41 32 24 17 4 11 42 50 55 55 50 49 47 41 46 53
Wind_Direction_500mb
227 238 213 231 215 222 266 257 263 236 267 261 205 222 190 179 180 187 214 197 196 200 203 201 201 206 211 213 213 216 219 221
240 223 236 209 191 203 223 231 245 251 245 241 230 204 174 182 198 206 201 206 195 197 202 206 204 205 210 217 216 215 217 220
227 218 214 226 219 226 194 221 234 240 249 247 232 179 176 196 199 196 202 200 193 198 201 208 203 203 207 212 215 215 216 219
249 257 208 216 206 203 223 263 253 237 256 261 242 177 193 191 192 199 189 193 191 195 194 200 201 203 206 210 215 219 219 220
248 261 253 210 210 200 219 168 235 192 251 251 256 151 103 171 214 209 225 196 185 187 189 195 200 202 204 209 214 218 220 223
222 233 235 224 206 202 198 219 236 242 259 271 282 219 181 210 230 203 239 212 189 184 189 193 198 203 204 208 213 217 221 224
214 221 224 240 233 204 205 210 206 235 230 242 236 218 212 192 194 224 231 205 189 176 185 194 198 204 207 209 208 216 219 224
206 211 219 241 241 237 209 216 228 232 251 218 229 214 207 210 194 194 225 201 189 184 192 198 202 205 206 210 209 210 218 223
206 175 233 236 231 245 245 216 202 214 235 222 263 224 184 214 202 185 222 219 194 195 198 203 206 212 209 211 211 209 216 221
157 132 209 244 194 218 238 240 216 202 189 206 209 232 218 228 172 247 292 239 209 207 198 203 211 213 219 213 210 211 214 219
160 193 315 275 260 212 215 249 227 91 103 92 25 248 232 219 211 212 240 246 248 205 211 210 206 209 217 214 214 212 215 217
177 173 217 183 244 273 94 188 107 100 78 55 48 42 275 343 354 329 236 226 239 243 253 220 211 210 210 214 214 213 216 220
188 196 275 174 229 77 143 231 95 90 75 64 87 197 327 338 323 310 320 240 222 215 225 230 231 223 211 212 214 220 215 215
329 158 255 1 71 189 191 72 80 75 58 30 356 339 332 316 302 299 285 268 235 221 231 236 234 222 210 210 217 210 208 210
315 325 131 64 76 60 99 82 59 74 62 72 69 66 54 46 34 37 97 197 236 231 223 218 222 206 204 205 206 202 201 201
302 342 64 37 62 94 84 69 78 72 78 94 90 82 78 73 65 58 64 135 153 162 167 167 184 194 201 195 196 188 184 190
284 14 339 60 80 94 88 78 82 80 82 87 92 82 82 78 73 77 94 113 141 154 152 153 167 175 178 178 183 178 180 181
18 359 282 22 61 84 81 78 79 84 76 79 88 87 93 89 85 88 82 104 139 127 138 143 156 159 165 172 176 172 173 192
152 66 46 4 58 74 87 82 78 75 70 80 84 94 94 95 94 93 69 55 68 151 125 133 136 139 149 157 167 182 195 181
Wind_Speed_850mb
48 40 36 22 42 28 10 16 12 16 17 22 30 38 32 49 63 76 77 73 103 111 111 116 113 107 101 98 94 85 76 65
42 44 35 39 12 22 29 30 38 31 20 24 16 35 27 23 39 64 67 90 97 108 113 115 117 110 102 98 96 89 80 72
30 38 45 23 35 23 14 26 24 20 32 16 19 32 32 36 65 75 102 91 96 110 115 115 112 110 108 102 96 93 86 78
50 35 47 48 25 22 18 12 9 17 30 18 27 15 51 62 71 74 52 102 99 107 107 109 108 110 113 107 102 95 87 82
34 33 38 51 38 28 30 10 23 9 29 35 34 6 12 7 28 58 52 66 94 100 102 111 108 108 112 111 105 97 89 86
37 38 11 18 45 40 34 27 33 44 27 37 9 14 28 51 60 35 64 47 91 96 109 113 111 107 108 112 105 98 94 90
53 37 28 49 28 50 44 42 31 25 32 29 21 18 17 46 51 56 23 33 74 95 105 107 108 108 106 106 106 96 93 92
34 53 50 51 37 40 50 44 38 35 37 12 13 52 37 42 52 59 36 47 69 83 100 106 106 109 110 107 107 99 93 92
16 15 11 39 55 36 22 34 36 33 36 15 19 11 16 21 25 22 37 42 61 69 79 96 103 100 110 111 110 105 95 92
12 12 17 13 20 29 30 16 25 21 18 21 22 40 29 24 13 13 32 44 68 66 58 65 91 102 98 110 113 110 103 97
10 21 4 14 14 10 13 26 3 9 10 11 30 22 17 22 38 51 51 63 36 52 60 61 69 76 101 108 115 113 111 105
5 13 30 6 9 12 9 6 14 20 18 17 18 5 9 41 30 12 28 64 60 50 56 75 70 77 79 98 112 121 116 112
9 11 9 7 25 9 15 12 15 30 21 19 7 1 25 38 42 36 29 37 66 92 71 52 53 76 84 90 104 113 117 107
8 5 7 7 11 13 14 25 24 25 19 11 12 21 28 34 39 45 36 20 43 66 81 76 62 72 91 91 92 97 98 86
18 5 2 36 22 23 42 47 35 37 24 16 38 39 39 50 33 13 4 7 24 42 60 65 69 77 83 83 80 72 78 79
15 16 19 11 10 55 51 52 40 37 37 37 45 37 42 41 38 29 21 25 31 43 47 42 61 70 71 72 73 65 70 72
13 16 50 39 41 53 50 39 38 42 45 51 49 48 41 36 34 30 29 32 39 47 50 48 39 44 56 63 69 71 73 69
6 26 16 36 41 41 51 45 46 46 49 49 48 51 50 48 37 28 17 15 23 49 57 57 55 57 62 66 66 70 65 52
9 32 58 44 79 57 59 47 43 50 53 43 37 42 46 44 41 32 24 17 4 11 42 50 55 55 50 49 47 41 46 53
Wind_Direction_850mb
227 238 213 231 215 222 266 257 263 236 267 261 205 222 190 179 180 187 214 197 196 200 203 201 201 206 211 213 213 216 219 221
240 223 236 209 191 203 223 231 245 251 245 241 230 204 174 182 198 206 201 206 195 197 202 206 204 205 210 217 216 215 217 220
227 218 214 226 219 226 194 221 234 240 249 247 232 179 176 196 199 196 202 200 193 198 201 208 203 203 207 212 215 215 216 219
249 257 208 216 206 203 223 263 253 237 256 261 242 177 193 191 192 199 189 193 191 195 194 200 201 203 206 210 215 219 219 220
248 261 253 210 210 200 219 168 235 192 251 251 256 151 103 171 214 209 225 196 185 187 189 195 200 202 204 209 214 218 220 223
222 233 235 224 206 202 198 219 236 242 259 271 282 219 181 210 230 203 239 212 189 184 189 193 198 203 204 208 213 217 221 224
214 221 224 240 233 204 205 210 206 235 230 242 236 218 212 192 194 224 231 205 189 176 185 194 198 204 207 209 208 216 219 224
206 211 219 241 241 237 209 216 228 232 251 218 229 214 207 210 194 194 225 201 189 184 192 198 202 205 206 210 209 210 218 223
206 175 233 236 231 245 245 216 202 214 235 222 263 224 184 214 202 185 222 219 194 195 198 203 206 212 209 211 211 209 216 221
157 132 209 244 194 218 238 240 216 202 189 206 209 232 218 228 172 247 292 239 209 207 198 203 211 213 219 213 210 211 214 219
160 193 315 275 260 212 215 249 227 91 103 92 25 248 232 219 211 212 240 246 248 205 211 210 206 209 217 214 214 212 215 217
177 173 217 183 244 273 94 188 107 100 78 55 48 42 275 343 354 329 236 226 239 243 253 220 211 210 210 214 214 213 216 220
188 196 275 174 229 77 143 231 95 90 75 64 87 197 327 338 323 310 320 240 222 215 225 230 231 223 211 212 214 220 215 215
329 158 255 1 71 189 191 72 80 75 58 30 356 339 332 316 302 299 285 268 235 221 231 236 234 222 210 210 217 210 208 210
315 325 131 64 76 60 99 82 59 74 62 72 69 66 54 46 34 37 97 197 236 231 223 218 222 206 204 205 206 202 201 201
302 342 64 37 62 94 84 69 78 72 78 94 90 82 78 73 65 58 64 135 153 162 167 167 184 194 201 195 196 188 184 190
284 14 339 60 80 94 88 78 82 80 82 87 92 82 82 78 73 77 94 113 141 154 152 153 167 175 178 178 183 178 180 181
18 359 282 22 61 84 81 78 79 84 76 79 88 87 93 89 85 88 82 104 139 127 138 143 156 159 165 172 176 172 173 192
152 66 46 4 58 74 87 82 78 75 70 80 84 94 94 95 94 93 69 55 68 151 125 133 136 139 149 157 167 182 195 181